| time (UTC) | temp F | wind direction | speed MPH | gust MPH | rain 1hr in | rain 24hr in | rain mn in | humidity % | barometer mb |
| 20260504221526 | 66 | 9 | 10.0 | 17.0 | 0.00 | 0.00 | 0.00 | 37 | 1010.8 |
| 20260504220016 | 66 | 350 | 10.0 | 16.0 | 0.00 | 0.00 | 0.00 | 38 | 1010.9 |
| 20260504214526 | 65 | 345 | 10.0 | 17.0 | 0.00 | 0.00 | 0.00 | 40 | 1011.1 |
| 20260504213029 | 65 | 352 | 9.0 | 16.0 | 0.00 | 0.00 | 0.00 | 39 | 1011.3 |
| 20260504211534 | 65 | 340 | 8.0 | 20.0 | 0.00 | 0.00 | 0.00 | 38 | 1011.4 |
| 20260504210026 | 65 | 5 | 11.0 | 14.0 | 0.00 | 0.00 | 0.00 | 41 | 1011.6 |
| 20260504204524 | 64 | 350 | 8.0 | 14.0 | 0.00 | 0.00 | 0.00 | 44 | 1011.5 |
| 20260504203021 | 64 | 17 | 9.0 | 15.0 | 0.00 | 0.00 | 0.00 | 40 | 1011.7 |
| 20260504200021 | 63 | 59 | 6.0 | 10.0 | 0.00 | 0.00 | 0.00 | 41 | 1011.9 |
| 20260504193026 | 62 | 352 | 5.0 | 9.0 | 0.00 | 0.00 | 0.00 | 43 | 1012.3 |
| 20260504191528 | 61 | 9 | 3.0 | 10.0 | 0.00 | 0.00 | 0.00 | 45 | 1012.6 |
| 20260504190028 | 61 | 5 | 7.0 | 11.0 | 0.00 | 0.00 | 0.00 | 44 | 1012.7 |
| 20260504184541 | 60 | 34 | 7.0 | 10.0 | 0.00 | 0.00 | 0.00 | 46 | 1012.8 |
| 20260504181524 | 59 | 351 | 5.0 | 10.0 | 0.00 | 0.00 | 0.00 | 49 | 1013.1 |
| 20260504174520 | 57 | 26 | 9.0 | 12.0 | 0.00 | 0.00 | 0.00 | 53 | 1013.4 |
| 20260504173017 | 57 | 352 | 6.0 | 10.0 | 0.00 | 0.00 | 0.00 | 52 | 1013.6 |
| 20260504171513 | 57 | 13 | 6.0 | 11.0 | 0.00 | 0.00 | 0.00 | 50 | 1013.6 |
| 20260504081515 | 52 | 142 | 4.0 | 11.0 | 0.00 | 0.00 | 0.00 | 51 | 1012.4 |
| 20260504050014 | 55 | 130 | 10.0 | 14.0 | 0.00 | 0.00 | 0.00 | 47 | 1012.3 |
| 20260504044527 | 56 | 127 | 11.0 | 14.0 | 0.00 | 0.00 | 0.00 | 46 | 1012.3 |
| 20260504043029 | 58 | 113 | 7.0 | 12.0 | 0.00 | 0.00 | 0.00 | 44 | 1012.3 |
| 20260504041532 | 59 | 182 | 4.0 | 9.0 | 0.00 | 0.00 | 0.00 | 41 | 1012.1 |
| 20260504040022 | 61 | 146 | 5.0 | 7.0 | 0.00 | 0.00 | 0.00 | 39 | 1011.9 |
| 20260504034520 | 62 | 199 | 1.0 | 5.0 | 0.00 | 0.00 | 0.00 | 37 | 1011.8 |
| 20260504033016 | 63 | 263 | 3.0 | 4.0 | 0.00 | 0.00 | 0.00 | 35 | 1011.6 |
| 20260504031513 | 64 | 249 | 3.0 | 5.0 | 0.00 | 0.00 | 0.00 | 34 | 1011.5 |
| 20260504030009 | 65 | 251 | 1.0 | 2.0 | 0.00 | 0.00 | 0.00 | 34 | 1011.4 |
| 20260504024528 | 66 | 229 | 1.0 | 3.0 | 0.00 | 0.00 | 0.00 | 32 | 1011.2 |
| 20260504023027 | 67 | 283 | 2.0 | 3.0 | 0.00 | 0.00 | 0.00 | 31 | 1011.3 |
| 20260504021530 | 68 | 251 | 1.0 | 6.0 | 0.00 | 0.00 | 0.00 | 30 | 1011.1 |
| 20260504020022 | 69 | 315 | 3.0 | 7.0 | 0.00 | 0.00 | 0.00 | 29 | 1011.1 |
| 20260504014527 | 70 | 281 | 2.0 | 6.0 | 0.00 | 0.00 | 0.00 | 29 | 1011.2 |
| 20260504013019 | 72 | 280 | 3.0 | 6.0 | 0.00 | 0.00 | 0.00 | 27 | 1011.3 |
| 20260504011517 | 72 | 254 | 4.0 | 8.0 | 0.00 | 0.00 | 0.00 | 26 | 1011.4 |
| 20260504010028 | 73 | 234 | 3.0 | 8.0 | 0.00 | 0.00 | 0.00 | 24 | 1011.6 |
| 20260504004529 | 73 | 247 | 5.0 | 12.0 | 0.00 | 0.00 | 0.00 | 23 | 1011.7 |
| 20260504003032 | 74 | 297 | 4.0 | 11.0 | 0.00 | 0.00 | 0.00 | 24 | 1011.8 |
| 20260504001531 | 75 | 249 | 6.0 | 8.0 | 0.00 | 0.00 | 0.00 | 23 | 1012.0 |
| 20260504000028 | 74 | 232 | 3.0 | 8.0 | 0.00 | 0.00 | 0.00 | 21 | 1012.1 |
| 20260503234506 | 74 | 238 | 4.0 | 9.0 | 0.00 | 0.00 | 0.00 | 20 | 1012.3 |
| 20260503233015 | 73 | 315 | 4.0 | 8.0 | 0.00 | 0.00 | 0.00 | 23 | 1012.2 |
| 20260503231509 | 75 | 253 | 4.0 | 8.0 | 0.00 | 0.00 | 0.00 | 23 | 1012.3 |
| 20260503230012 | 74 | 308 | 2.0 | 8.0 | 0.00 | 0.00 | 0.00 | 23 | 1012.5 |
| 20260503224509 | 73 | 260 | 1.0 | 9.0 | 0.00 | 0.00 | 0.00 | 23 | 1012.7 |
| 20260503223012 | 74 | 350 | 7.0 | 11.0 | 0.00 | 0.00 | 0.00 | 23 | 1012.8 |